Torna al catalogo

DELTA 1 DEB

AttivoPO
NORAD 42566·DEBRIS·🇺🇸 United States

Lanciato Jul 23, 1972 da Vandenberg Space Force Base

Loading…

Prossimi Passaggi (prossime 24 ore)

TLE

AggiornatoSource: Space-Track

Epoca: Sep 13, 2026, 18:35 UTC

1 42566U 72058JZ  26256.77450691  .00000839  00000-0  49277-3 0  9997
2 42566  98.1484   5.4839 0476921 188.0819 171.2446 13.65208244635624

Traccia DELTA 1 DEB in tempo reale con AllMySat

Download on the App Store